Retour au catalogue

FENGYUN 1C DEB

ActifSSO
NORAD 30044·DEBRIS·🇨🇳 China

Lancé May 10, 1999 depuis Taiyuan Satellite Launch Center

Loading…

Prochains Passages (prochaines 24 heures)

TLE

FraisSource: Space-Track

Époque: Sep 14, 2026, 11:07 UTC

1 30044U 99025NV  26257.46345754  .00005745  00000-0  12949-2 0  9994
2 30044  98.2076 177.1507 0077391  38.3800 322.2868 14.54879477 20427

Suivez FENGYUN 1C DEB en temps réel avec AllMySat

Download on the App Store